User: anonymous   Login
Location: Clanezzo
(45.7500°N, 9.6000°E)
Time: 03:21:49
(UTC+00:00)
Language:

FENGYUN 1C DEB - Orbit

View from above orbital plane
View from above orbital plane
View from above satellite
View from above satellite

Ground track
Ground track

The orbit data is extracted from the following two-line orbital elements,

1 31180U 99025BJJ 21332.78682731  .00000105  00000-0  74330-4 0  9998
2 31180  99.0541 156.8744 0510201 328.5860  40.0450 13.66971249438959
Epoch (UTC): 28 November 2021 18:53:01
Eccentricity: 0.0510201
inclination: 99.0541°
perigee height: 633 km
apogee height: 1387 km
right ascension of ascending node: 156.8744°
argument of perigee: 328.5860°
revolutions per day: 13.66971249
mean anomaly at epoch: 40.0450°
orbit number at epoch: 43895

The dashed part of the orbit path shows where the satellite is in the earth's shadow,  

DLR